Regional Weather Roundup
Issued by NWS

Home | Current Version | Previous Version | Text Only | Print | Product List | Glossary Off
Versions: 1 2 3 4 5 6 7 8 9 10 11 12 13 14 15 16 17 18 19 20 21 22 23 24 25 26 27 28 29 30 31 32 33 34 35 36 37 38 39 40 41 42 43 44 45 46 47 48 49 50

000
ASUS44 KMEG 302200
RWRTN
TENNESSEE HOURLY STATE WEATHER ROUNDUP
NATIONAL WEATHER SERVICE MEMPHIS TN
500 PM CDT TUE SEP 30 2014

TNZ002-004-019-021-049-052-054-088>092-302300-
WEST TENNESSEE

CITY           SKY/WX    TMP DP  RH WIND       PRES   REMARKS
MEMPHIS INTL   MOSUNNY   87  58  37 VRB5      29.86F
NWS MEMPHIS      N/A     87 N/A N/A MISG        N/A
JACKSON        MOSUNNY   85  57  38 CALM      29.88F
DYERSBURG      MOSUNNY   84  54  34 CALM      29.88S
UNION CITY     SUNNY     84  54  34 S5        29.87S
PARIS          SUNNY     81  55  41 E3        29.89S
LEXINGTON      SUNNY     84  55  37 N5        29.88S
SAVANNAH       SUNNY     82  57  42 CALM      29.88S
$$

TNZ008-025-027-028-033-062-065-066-302300-
NORTH MIDDLE TENNESSEE

CITY           SKY/WX    TMP DP  RH WIND       PRES   REMARKS
NASHVILLE      MOSUNNY   86  49  27 N3        29.89S
CLARKSVILLE    SUNNY     85  52  32 CALM      29.88S
COOKEVILLE     SUNNY     81  52  36 CALM      29.91S
CROSSVILLE     SUNNY     78  49  35 W7        29.95S
$$

TNZ061-075-076-078-094-096-097-302300-
SOUTH MIDDLE TENNESSEE

CITY           SKY/WX    TMP DP  RH WIND       PRES   REMARKS
FAYETTEVILLE   MOSUNNY   81  55  41 E3        29.89F
TULLAHOMA      SUNNY     81  55  41 CALM      29.91S
WINCHESTER     MOSUNNY   81  57  44 W3        29.90S
SHELBYVILLE    SUNNY     84  54  34 NW5       29.89F
$$

TNZ017-018-042-046-047-302300-
NORTHEAST TENNESSEE

CITY           SKY/WX    TMP DP  RH WIND       PRES   REMARKS
TRI CITIES     MOSUNNY   79  54  41 NW7       29.91S
ELIZABETHTON   PTCLDY    77  54  44 W3        29.92R
$$

TNZ012-013-036-069-073-074-302300-
CENTRAL EAST TENNESSEE

CITY           SKY/WX    TMP DP  RH WIND       PRES   REMARKS
KNOXVILLE      MOSUNNY   81  56  42 NE3       29.89S
OAK RIDGE      SUNNY     81  57  43 CALM      29.91F
GATLINBURG     CLEAR     81  50  34 N3        29.90S
MORRISTOWN     CLEAR     79  54  41 W6        29.92S
$$

TNZ083-085-099-302300-
SOUTHEAST TENNESSEE

CITY           SKY/WX    TMP DP  RH WIND       PRES   REMARKS
CHATTANOOGA    MOSUNNY   84  58  40 N6        29.89S
$$

SKY/WX REPORTED AS FAIR MEANS FEW OR NO CLOUDS BELOW
12 THOUSAND FEET.



USA.gov is the U.S. government's official web portal to all federal, state and local government web resources and services.